Location: Cahas Mountain Overlook
(37.0833°N, 80.1000°W)
Time: 05:05:43
(UTC-05:00)

S-56A Canister/Altair - Visible Passes

Search period start: 05 December 2023 00:00
Search period end: 15 December 2023 00:00
Orbit: 640 x 2489 km, 38.8° (Epoch: 04 December)

Date Brightness Start Highest point End Pass type
(mag) Time Alt. Az. Time Alt. Az. Time Alt. Az.
05 Dec 10.6 18:34:42 10° WSW 18:39:01 19° SSW 18:44:28 10° S visible
06 Dec 10.4 18:01:32 10° WSW 18:05:48 21° SSW 18:11:14 10° SSE visible
07 Dec 10.3 17:28:25 10° W 17:32:37 22° SSW 17:37:58 10° SSE visible
12 Dec 11.4 06:28:45 10° SSE 06:32:08 13° SE 06:35:06 10° ESE visible
13 Dec 11.5 05:56:14 10° SSE 05:58:47 11° SE 06:01:07 10° SE visible
14 Dec 11.6 05:25:10 10° SE 05:25:24 10° SE 05:25:37 10° SE visible
